Location: El Azufral
(10.3513°N, 67.1528°W)
Time: 18:02:04
(UTC+00:00)

Cosmos 2279 Rocket - Pass Details

Date: 13 June 2024
Orbit: 964 x 977 km, 82.9° (Epoch: 24 July)

Event Time Altitude Azimuth Distance (km) Brightness Sun altitude
Rises 23:44:22 0° 355° (N) 3,653 7.5 -12.8°
Reaches altitude 10° 23:46:52 10° 355° (N) 2,708 6.8 -13.3°
Maximum altitude 23:53:04 85° 268° (W) 980 4.0 -14.7°
Drops below altitude 10° 23:59:19 10° 179° (S) 2,717 6.1 -16.0°
Sets 00:01:49 0° 178° (S) 3,666 6.7 -16.6°
